COSMOS 2465 (GLONASS)

Satellite information

Favourite Embed

Satellite Type and Status

PAYLOADIN ORBIT

Key statistics

Satellite COSMOS 2465 (GLONASS) at a glance.

Uptime

5536

Days in orbit

Revolutions

≈ 2.1

Per day

Orbit

MEO

Medium Earth Orbit

Inclination

63.9

Latest

Satellite identification and parameters

Extended collection of information and parameters for COSMOS 2465 (GLONASS).

Object identification

Identified? True

Debris? False

Object name: COSMOS 2465 (GLONASS)

International designator: 2010-041B

Object number (NORAD): 37138

Object ID (CCSDS): 37138

Country: COMMONWEALTH OF INDEPENDENT STATES (CIS)

Current information (Y/N): Y

RCS size: LARGE

Orbital parameters

Period: 675.745 minutes

Inclination: 63.9094 deg

SMA: 25508.326 km

Apoapsis: 19233.928 km

Periapsis: 19026.453 km

RAAN: 198.1814 deg

Eccentricy: 0.00406682

Argument of periapsis: 179.8597 deg

Mean anomaly: 173.5454 deg

Mean motion: 2.13098224 rev/day

Mean motion (dot): 0.00000017 rev/day2

B* drag term: 0.0 1/REarth

Two-line elements (TLE)

Creation date: Oct. 28, 2025, 7:11 p.m.

Reference frame: TEME

Reference center: EARTH

Epoch: Oct. 28, 2025, 5:48 a.m. UTC

TLE line 0: 0 COSMOS 2465 (GLONASS)

TLE line 1: 1 37138U 10041B 25301.24211572 .00000017 00000-0 00000-0 0 9991

TLE line 2: 2 37138 63.9094 198.1814 0040668 179.8597 173.5454 2.13098224117916

Live tracking on map

Real-time ground track for satellite COSMOS 2465 (GLONASS).

In-orbit conjunctions

There are no conjunctions computed for COSMOS 2465 (GLONASS), at the moment. Check back to stay up to date, as we update our databases every day.

Go to all conjunctions

Associated space launch

Glonass-M, also known as Uragan-M, are the second generation of Uragan satellite design used for GLONASS satellite navigation system. GLONASS is a Russian space-based navigation system comparable to the similar GPS and Galileo systems. This generation improves on accuracy, power consumption and design life. Each satellite weighs 1415 kg, is equipped with 12 L-band antennas, and has an operational lifetime of 7 years.

COSMOS 2465 (GLONASS) was lifted into orbit during the mission ‘Proton-M/DM-2 Enhanced | 3 x Glonass-M (Kosmos 2464, Kosmos 2465, Kosmos 2466)’, on board a Proton-M space rocket.

The launch took place on Sept. 2, 2010, 12:53 a.m. from 81/24 (81P).

For more information about the launch, click the button.

Launch to space Proton-M/DM-2 Enhanced | 3 x Glonass-M (Kosmos 2464, Kosmos 2465, Kosmos 2466)
Proton-M/DM-2 Enhanced | 3 x Glonass-M (Kosmos 2464, Kosmos 2465, Kosmos 2466)

Agency: N/A

Status: Launch Successful

Launch date: Sept. 2, 2010, 12:53 a.m. UTC

Rocket: Proton-M

Launch pad: 81/24 (81P)

Location: Baikonur Cosmodrome, Republic of Kazakhstan

...

Latest news about this satellite

There are no fresh news available about this satellite. Check back as we update our databases every day.


Newsletter sign-up

Weekly statistics, charts and insights to help you stay on top of the space industry.